Regional Weather Roundup
Issued by NWS Grand Forks, ND

Home | Current Version | Previous Version | Graphics & Text | Print | Product List | Glossary On
Versions: 1 2 3 4 5 6 7 8 9 10 11 12 13 14 15 16 17 18 19 20 21 22 23 24 25 26 27 28 29 30 31 32 33 34 35 36 37 38 39 40 41 42 43 44 45 46 47 48 49 50
000
ASUS43 KFGF 290631
RWRFGF
PRAIRIE TO PINES  WEATHER ROUNDUP
NATIONAL WEATHER SERVICE EASTERN NORTH DAKOTA/GRAND FORKS ND
100 AM CDT MON MAY 29 2017

 **SATELLITE DATA USED TO AUGMENT SKY COVER AT AUTOMATED STATIONS**
 *****  WEATHER ACROSS EASTERN NORTH DAKOTA  *****

CITY           SKY/WX    TMP DP  RH WIND       PRES   REMARKS
GRAND FORKS    CLOUDY    52  50  93 NW14      29.79S
6HR MIN TEMP:  52; 6HR MAX TEMP:  58; 6HR PCP: TRACE;

GRAND FRKS AFB CLOUDY    50  50 100 N12G20    29.80S
DEVILS LAKE    CLOUDY    52  45  77 NW12      29.86R
6HR MIN TEMP:  51; 6HR MAX TEMP:  56; 6HR PCP: TRACE;

FARGO          CLOUDY    53  49  86 NW12      29.80S
WAHPETON ARPT  CLOUDY    54  45  71 NW15      29.81S
$$

 ***** WEATHER ACROSS CENTRAL AND WESTERN NORTH DAKOTA  *****

CITY           SKY/WX    TMP DP  RH WIND       PRES   REMARKS
BISMARCK       FAIR      53  42  66 NW9       29.97S
6HR MIN TEMP:  53; 6HR MAX TEMP:  70;

MINOT          MOCLDY    53  44  71 NW21G30   29.95S
6HR MIN TEMP:  53; 6HR MAX TEMP:  62; 6HR PCP: TRACE;

JAMESTOWN      CLOUDY    52  47  83 NW10      29.86S
6HR MIN TEMP:  51; 6HR MAX TEMP:  58; 6HR PCP:  0.04;

MINOT AFB      FAIR      52  44  75 NW20      29.95R
GARRISON         N/A     49  41  74 NW17      29.97S
WILLISTON      MOCLDY    55  39  54 N15       30.07S
6HR MIN TEMP:  49; 6HR MAX TEMP:  71; 6HR PCP: TRACE;

DICKINSON      FAIR      41  34  76 W7        30.04R
6HR MIN TEMP:  41; 6HR MAX TEMP:  67;

HETTINGER      FAIR      34  31  88 NW3       30.07R
6HR MIN TEMP:  34; 6HR MAX TEMP:  69;

$$

 *****  OTHER AIRPORT OBSERVATIONS IN OUR AREA  *****

CITY           SKY/WX    TMP DP  RH WIND       PRES   REMARKS
WALHALLA       NOT AVBL
GRAFTON AIRPOR CLOUDY    50  50 100 NW16G24   29.81S
VALLEY CITY AR CLOUDY    52  52 100 NW7       29.86R
CANDO          NOT AVBL
CAVALIER APRT    N/A     50  48  93 NW14G21   29.80R
GWINNER        CLOUDY    54  48  82 MISG      29.84S
SHEYENNE NWR     N/A     54  48  79 NW7       29.95S
ROLLA          CLOUDY    50  48  93 N13       29.88S
 ***** THE ABOVE OBSERVATIONS ARE NON NWS ARE NOT QUALITY
       CONTROLLED AND MAY MIS-REPORT RAIN FOR SNOW...
$$

  *****  WEATHER ACROSS NORTHERN MINNESOTA  *****

CITY           SKY/WX    TMP DP  RH WIND       PRES   REMARKS
FLAG ISLAND    CLOUDY    50  46  87 NW17G23   29.68S
WARROAD        CLOUDY    48  45  87 NW13      29.71S
ROSEAU         CLOUDY    50  45  81 NW12      29.72S
HALLOCK        CLOUDY    52  46  82 N15G24    29.77R
THF RVR FALLS  LGT RAIN  48  48 100 NW15      29.76S FOG
6HR MIN TEMP:  49; 6HR MAX TEMP:  53; 6HR PCP:  0.01;

BAUDETTE       MOCLDY    50  46  86 NW16G23   29.68S
6HR MIN TEMP:  50; 6HR MAX TEMP:  59;

WASKISH        CLOUDY    52  48  87 NW13      29.69S
CROOKSTON      CLOUDY    52  48  87 NW15      29.78R
STEPHEN NDAWN    N/A     52  46  82 NW15        N/A
GREENBUSH NDAW   N/A     48  46  93 NW12        N/A
$$
  *****  WEATHER ACROSS CENTRAL AND WEST MINNESOTA  *****

CITY           SKY/WX    TMP DP  RH WIND       PRES   REMARKS
FOSSTON        DRIZZLE   46  46 100 NW8G16    29.75S
BEMIDJI        CLOUDY    49  47  90 NW10G16   29.71S
PARK RAPIDS    CLOUDY    51  44  77 NW16      29.73S
6HR MIN TEMP:  51; 6HR MAX TEMP:  60; 6HR PCP:  0.02;

ELBOW LAKE     CLOUDY    53  48  82 W17G23    29.80S
6HR MIN TEMP:  52; 6HR MAX TEMP:  62;

WADENA         CLOUDY    52  45  76 NW15      29.74F
DETROIT LAKES  CLOUDY    50  45  81 NW14G21   29.78S
MOORHEAD       CLOUDY    52  48  87 NW9       29.81R
FERGUS FALLS   CLOUDY    52  46  82 N17       29.78S
MORRIS MN      CLOUDY    54  46  76 W10       29.80S
STAPLES        CLOUDY    50  46  87 W10       29.73F
$$
  *****  WEATHER ELSEWHERE ACROSS MINNESOTA  *****

CITY           SKY/WX    TMP DP  RH WIND       PRES   REMARKS
DULUTH         CLOUDY    51  49  92 W9        29.63S
6HR MIN TEMP:  51; 6HR MAX TEMP:  61; 6HR PCP: TRACE;

INTRNTL FALLS  CLOUDY    52  49  89 NW8       29.63S
6HR MIN TEMP:  52; 6HR MAX TEMP:  57; 6HR PCP:  0.05;

ELY            CLOUDY    48  48 100 W3        29.60S
CLOQUET        CLOUDY    52  46  82 W8        29.64F
WHEATON        CLOUDY    54  46  76 W9        29.84R
BRAINERD       CLOUDY    53  47  79 NW14G21   29.72S
6HR MIN TEMP:  51; 6HR MAX TEMP:  58;

HIBBING        CLOUDY    51  49  92 W8        29.63S
6HR MIN TEMP:  50; 6HR MAX TEMP:  55; 6HR PCP: TRACE;

ALEXANDRIA     CLOUDY    52  47  83 NW13      29.78S
6HR MIN TEMP:  52; 6HR MAX TEMP:  60; 6HR PCP:  0.01;

SAINT CLOUD    CLOUDY    53  50  89 NW13      29.73R
6HR MIN TEMP:  50; 6HR MAX TEMP:  65; 6HR PCP:  0.05;

MINNEAPOLIS    CLOUDY    58  46  64 W8        29.72F
6HR MIN TEMP:  56; 6HR MAX TEMP:  68; 6HR PCP:  0.02;

$$

  *****  WEATHER ACROSS SOUTH DAKOTA  *****

CITY           SKY/WX    TMP DP  RH WIND       PRES   REMARKS
SIOUX FALLS    FAIR      52  47  83 W6        29.88F
6HR MIN TEMP:  49; 6HR MAX TEMP:  74; 6HR PCP: TRACE;

BROOKINGS      FAIR      49  45  86 W8        29.90R
WATERTOWN      FAIR      46  43  89 W8        29.86F
6HR MIN TEMP:  46; 6HR MAX TEMP:  59; 6HR PCP: TRACE;

HURON          FAIR      45  43  93 NW6       29.92R
6HR MIN TEMP:  45; 6HR MAX TEMP:  72; 6HR PCP: TRACE;

SISSETON         N/A     56  46  69 NW16      29.82F
ABERDEEN       FAIR      52  40  63 NW10      29.90R
6HR MIN TEMP:  50; 6HR MAX TEMP:  68; 6HR PCP: TRACE;

MITCHELL       FAIR      54  48  80 W6        29.91F
PIERRE         FAIR      54  37  52 N14       29.97R
6HR MIN TEMP:  47; 6HR MAX TEMP:  73; 6HR PCP: TRACE;

MOBRIDGE       FAIR      51  40  65 NW9       29.95R
RAPID CITY     MOCLDY    54  40  59 NW12      30.09S
6HR MIN TEMP:  53; 6HR MAX TEMP:  67; 6HR PCP: TRACE;

$$

  *****  SOME WEATHER IN NEARBY STATES *****

CITY           SKY/WX    TMP DP  RH WIND       PRES   REMARKS
GLASGOW MT     FAIR      49  29  46 N9        30.15R
6HR MIN TEMP:  49; 6HR MAX TEMP:  72;

GREAT FALLS MT FAIR      48  44  86 SW5       30.24S
6HR MIN TEMP:  48; 6HR MAX TEMP:  72; 6HR PCP:  0.01;

CHEYENNE WY    MOCLDY    48  39  71 NW6       30.28F
6HR MIN TEMP:  48; 6HR MAX TEMP:  59;

SCOTTSBLUFF NE FAIR      51  45  79 CALM      30.19F
6HR MIN TEMP:  50; 6HR MAX TEMP:  69; 6HR PCP: TRACE;

OMAHA NE       FAIR      58  47  66 SE3       29.86F
6HR MIN TEMP:  58; 6HR MAX TEMP:  77;

DES MOINES IA  FAIR      59  46  62 W7        29.84S
6HR MIN TEMP:  59; 6HR MAX TEMP:  78;

DAVENPORT IA   FAIR      59  51  75 W8        29.80S
6HR MIN TEMP:  59; 6HR MAX TEMP:  76;

CHICAGO IL     FAIR      63  49  60 SW5       29.76R
6HR MIN TEMP:  61; 6HR MAX TEMP:  75;

EAU CLAIRE WI  FAIR      51  49  92 SW6       29.69S
6HR MIN TEMP:  51; 6HR MAX TEMP:  60; 6HR PCP:  0.01;

LA CROSSE WI   FAIR      58  49  72 NW7       29.72R
6HR MIN TEMP:  58; 6HR MAX TEMP:  74;

$$

  *****  SOME NATIONAL WEATHER *****

CITY           SKY/WX    TMP DP  RH WIND       PRES   REMARKS
LA GUARDIA NY  CLOUDY    61  53  75 E12       29.89F
6HR MIN TEMP:  61; 6HR MAX TEMP:  65; 6HR PCP:  0.01;

RALEIGH NC     FAIR      70  66  87 CALM      29.85R
6HR MIN TEMP:  69; 6HR MAX TEMP:  80;

ATLANTA GA     MOCLDY    71  65  81 W9        29.97R
6HR MIN TEMP:  71; 6HR MAX TEMP:  80;

NEW ORLEANS LA FAIR      79  74  84 CALM      30.02R
6HR MIN TEMP:  77; 6HR MAX TEMP:  84;

OKLAHOMA CITY  FAIR      58  49  72 SW3       30.05S
6HR MIN TEMP:  58; 6HR MAX TEMP:  81;

ALBUQUERQUE NM FAIR      65  33  30 SE10      30.19S
6HR MIN TEMP:  64; 6HR MAX TEMP:  79;

SALT LAKE CITY FAIR      63  41  44 SE3       30.14F
6HR MIN TEMP:  63; 6HR MAX TEMP:  79;

LOS ANGELES CA FAIR      61  58  90 SW6       29.98S
6HR MIN TEMP:  61; 6HR M



USA.gov is the U.S. government's official web portal to all federal, state and local government web resources and services.